Station OSGN6 - 9052030 - Oswego, NY Image indicating link to RSS feed of recent meteorological observations for station OSGN6


Conditions at OSGN6 as of
(1:18 pm EDT)
1718 GMT on 05/20/2024:
     

Click on the graph icon in the table below to see a time series plot of the last five days of that observation.

5-day plot - Wind Direction Wind Direction (WDIR): W ( 280 deg true )
5-day plot - Wind Speed Wind Speed (WSPD): 9.9 kts
5-day plot - Wind Gust Wind Gust (GST): 11.1 kts
5-day plot - Atmospheric Pressure Atmospheric Pressure (PRES):29.94 in
5-day plot - Air Temperature Air Temperature (ATMP): 65.8 °F
5-day plot - Dew Point Dew Point (DEWP): 57.6 °F
5-day plot - Wind Speed at 10 Meters Wind Speed at 10 meters (WSPD10M): 9.7 kts
5-day plot - Wind Speed at 20 Meters Wind Speed at 20 meters (WSPD20M): 9.7 kts
5-day plot -  Wind Speed, Wind Gust and Atmospheric Pressure Combined plot of Wind Speed, Gust, and Air Pressure
NOS Water Level Observation Network Water Level
Previous observations
TIME
(EDT)
5-day plot - Wind Direction
WDIR
 
5-day plot - Wind Speed
WSPD
kts
5-day plot - Wind Gust
GST
kts
5-day plot - Wave Height
WVHT
ft
5-day plot - Dominant Wave Period
DPD
sec
5-day plot - Average Wave Period
APD
sec
5-day plot - Mean Wave Direction
MWD
 
5-day plot - Atmospheric Pressure
PRES
in
5-day plot - Pressure Tendency
PTDY
in
5-day plot - Air Temperature
ATMP
°F
5-day plot - Water Temperature
WTMP
°F
5-day plot - Dew Point
DEWP
°F
5-day plot - Salinity
SAL
psu
5-day plot - Visibility
VIS
nmi
5-day plot - Tide (above MLLW)
TIDE
ft
2024-05-20 01:12 pm W 9.9 12.0----29.94- 66.2- 57.6---
2024-05-20 01:06 pm W 9.9 12.0----29.95- 66.4- 57.4---
2024-05-20 01:00 pm W 11.1 13.0----29.95-0.02 66.2- 57.0---
2024-05-20 12:54 pm W 11.1 12.0----29.95- 66.7- 56.8---
2024-05-20 12:48 pm W 8.9 12.0----29.95- 66.9- 57.4---
2024-05-20 12:42 pm W 9.9 12.0----29.95- 66.0- 57.0---
2024-05-20 12:36 pm W 9.9 12.0----29.95- 66.6- 57.2---
2024-05-20 12:30 pm W 8.9 11.1----29.95- 66.4- 57.0---
2024-05-20 12:24 pm W 8.0 9.9----29.95- 67.1- 57.2---
2024-05-20 12:18 pm W 6.0 8.0----29.95- 67.1- 57.2---
2024-05-20 12:12 pm W 7.0 9.9----29.95- 67.5- 57.4---
2024-05-20 12:06 pm W 8.0 9.9----29.95- 67.1- 57.4---
2024-05-20 12:00 pm W 8.0 9.9----29.95-0.01 67.8- 57.9---
2024-05-20 11:54 am W 8.0 9.9----29.95- 67.3- 58.6---
2024-05-20 11:48 am W 7.0 8.9----29.96- 66.7- 57.9---
2024-05-20 11:42 am W 7.0 9.9----29.96- 67.1- 58.1---
2024-05-20 11:36 am W 7.0 8.9----29.96- 67.6- 58.6---
2024-05-20 11:30 am W 7.0 8.9----29.96- 66.7- 58.5---
2024-05-20 11:24 am W 6.0 8.0----29.96- 66.6- 58.6---
2024-05-20 11:18 am W 7.0 11.1----29.96- 65.7- 58.5---
2024-05-20 11:12 am W 8.9 11.1----29.96- 66.2- 58.3---
2024-05-20 11:06 am W 8.9 11.1----29.96- 66.7- 58.1---
2024-05-20 11:00 am W 8.9 9.9----29.96+0.01 66.7- 57.6---
2024-05-20 10:54 am W 8.9 11.1----29.96- 67.8- 57.9---
2024-05-20 10:48 am W 9.9 11.1----29.96- 67.8- 57.9---
2024-05-20 10:42 am W 8.0 12.0----29.96- 67.5- 58.3---
2024-05-20 10:36 am W 9.9 11.1----29.97- 67.5- 57.4---
2024-05-20 10:30 am W 8.9 11.1----29.97- 68.2- 57.6---
2024-05-20 10:24 am W 8.0 11.1----29.96- 68.5- 57.6---
2024-05-20 10:18 am W 6.0 8.9----29.96- 69.1- 58.3---
2024-05-20 10:12 am W 9.9 13.0----29.96- 68.2- 57.7---
2024-05-20 10:06 am W 8.9 9.9----29.96- 68.0- 59.0---
2024-05-20 10:00 am W 8.9 12.0----29.96+0.02 67.3- 58.1---
2024-05-20 09:54 am W 8.0 9.9----29.97- 67.5- 57.4---
2024-05-20 09:48 am W 5.1 7.0----29.97- 68.9- 58.5---
2024-05-20 09:42 amSSW 5.1 7.0----29.96- 70.3- 59.4---
2024-05-20 09:36 amSSW 5.1 7.0----29.96- 70.5- 59.7---
2024-05-20 09:30 am S 6.0 8.0----29.97- 70.3- 60.3---
2024-05-20 09:24 am S 7.0 8.9----29.97- 69.6- 60.1---
2024-05-20 09:18 am S 6.0 8.9----29.97- 69.3- 60.3---
2024-05-20 09:12 amSSW 4.1 7.0----29.96- 69.3- 60.8---
2024-05-20 09:06 am SW 5.1 7.0----29.97- 68.9- 60.8---
2024-05-20 09:00 am S 4.1 6.0----29.96+0.01 68.4- 61.3---
2024-05-20 08:54 am S 5.1 8.0----29.96- 67.6- 61.0---
2024-05-20 08:48 am S 6.0 8.0----29.96- 67.3- 60.8---
2024-05-20 08:42 am S 7.0 8.0----29.96- 67.3- 61.0---
2024-05-20 08:36 am S 6.0 8.9----29.95- 67.1- 61.0---
2024-05-20 08:30 am S 6.0 8.0----29.96- 66.7- 61.0---
2024-05-20 08:24 amSSE 6.0 9.9----29.96- 66.0- 60.6---
2024-05-20 08:18 am S 6.0 8.0----29.96- 65.7- 60.6---
2024-05-20 08:12 am S 6.0 8.9----29.96- 65.3- 60.8---
2024-05-20 08:06 am S 7.0 8.9----29.96- 64.9- 60.6---
2024-05-20 08:00 am S 7.0 9.9----29.96+0.03 64.6- 60.3---
2024-05-20 07:54 am S 8.9 12.0----29.95- 64.2- 60.1---
2024-05-20 07:48 am S 6.0 9.9----29.95- 64.2- 60.4---
2024-05-20 07:42 amSSE 8.0 9.9----29.95- 63.5- 59.7---
2024-05-20 07:36 amSSE 7.0 9.9----29.95- 63.3- 59.7---
2024-05-20 07:30 amSSE 8.0 9.9----29.94- 63.0- 59.5---
2024-05-20 07:24 am S 7.0 9.9----29.95- 62.8- 59.5---
2024-05-20 07:18 amSSE 8.0 9.9----29.95- 62.6- 59.4---
2024-05-20 07:12 am S 6.0 8.0----29.95- 62.6- 59.5---
2024-05-20 07:06 am S 5.1 8.0----29.95- 62.2- 59.4---
2024-05-20 07:00 am S 6.0 8.9----29.94+0.02 62.1- 59.2---
2024-05-20 06:54 am S 6.0 8.0----29.94- 61.7- 59.0---
2024-05-20 06:48 am S 6.0 8.9----29.94- 61.5- 59.0---
2024-05-20 06:42 amSSE 6.0 8.0----29.94- 61.3- 59.0---
2024-05-20 06:36 am S 5.1 8.0----29.94- 61.2- 58.8---
2024-05-20 06:30 amSSE 7.0 8.9----29.94- 61.0- 58.6---
2024-05-20 06:24 amSSE 6.0 8.0----29.95- 60.6- 58.5---
2024-05-20 06:18 amSSE 5.1 8.9----29.95- 60.4- 58.5---
2024-05-20 06:12 am S 6.0 8.0----29.95- 60.3- 58.1---
2024-05-20 06:06 amSSE 6.0 7.0----29.95- 60.3- 58.1---
2024-05-20 06:00 am S 5.1 7.0----29.95+0.03 60.4- 58.3---
2024-05-20 05:54 amSSE 5.1 7.0----29.95- 60.3- 58.3---
2024-05-20 05:48 amSSE 6.0 8.0----29.94- 60.3- 58.1---
2024-05-20 05:42 amSSE 6.0 8.0----29.94- 60.3- 58.1---
2024-05-20 05:36 amSSE 6.0 7.0----29.94- 60.3- 58.1---
2024-05-20 05:30 amSSE 5.1 7.0----29.93- 60.4- 58.3---
2024-05-20 05:24 amSSE 5.1 7.0----29.93- 60.3- 58.1---
2024-05-20 05:18 amSSE 5.1 7.0----29.93- 60.4- 58.3---
2024-05-20 05:12 amSSE 6.0 7.0----29.93- 60.3- 58.1---
2024-05-20 05:06 amSSE 6.0 7.0----29.93- 60.3- 58.1---
2024-05-20 05:00 amSSE 6.0 7.0----29.92-0.02 60.4-----
2024-05-20 04:54 am S 6.0 6.0----29.92- 60.4- 58.3---
2024-05-20 04:48 amSSE 5.1 6.0----29.92- 60.6- 58.5---
2024-05-20 04:42 amSSE 5.1 8.0----29.91- 60.8- 58.6---
2024-05-20 04:36 am S 5.1 5.1----29.91- 60.6- 58.5---
2024-05-20 04:30 amSSE 4.1 5.1----29.91- 60.8- 58.6---
2024-05-20 04:24 amSSE 2.9 5.1----29.91- 60.8- 58.6---
2024-05-20 04:18 amSSE 5.1 6.0----29.92- 60.6- 58.3---
2024-05-20 04:12 amSSE 4.1 5.1----29.92- 60.6- 58.5---
2024-05-20 04:06 amSSE 5.1 6.0----29.92- 60.4- 58.3---
2024-05-20 04:00 amSSE 5.1 6.0----29.92-0.02 60.4- 58.3---
2024-05-20 03:54 amSSE 5.1 6.0----29.92- 60.4- 58.3---
2024-05-20 03:48 am S 5.1 6.0----29.92- 60.4- 58.3---
2024-05-20 03:42 am S 4.1 6.0----29.93- 60.8- 58.6---
2024-05-20 03:36 amSSE 5.1 6.0----29.92- 60.6- 58.5---
2024-05-20 03:30 am S 5.1 6.0----29.92- 60.8- 58.5---
2024-05-20 03:24 am S 4.1 5.1----29.92- 61.0- 58.6---
2024-05-20 03:18 amSSE 4.1 5.1----29.93- 61.0- 58.8---
2024-05-20 03:12 amSSE 4.1 5.1----29.93- 61.0- 58.8---
2024-05-20 03:06 amSSE 4.1 5.1----29.93- 61.0- 58.6---
2024-05-20 03:00 amSSE 4.1 4.1----29.92-0.01 61.0- 58.6---
2024-05-20 02:54 amSSE 2.9 4.1----29.92- 61.0- 58.6---
2024-05-20 02:48 amSSE 2.9 2.9----29.93- 60.6- 58.3---
2024-05-20 02:42 am- 0.0 1.0----29.93- 60.1- 58.1---
2024-05-20 02:36 am- 0.0 1.9----29.93- 60.3- 58.3---
2024-05-20 02:30 amSSE 1.0 2.9----29.93- 60.8- 58.6---
2024-05-20 02:24 amSSE 1.9 2.9----29.93- 61.2- 59.0---
2024-05-20 02:18 amSSE 1.0 1.9----29.93- 61.0- 58.8---
2024-05-20 02:12 amSSE 1.0 2.9----29.93- 61.0- 59.0---
2024-05-20 02:06 amSSE 1.9 2.9----29.94- 61.2- 59.0---
2024-05-20 02:00 am SE 1.0 2.9----29.94+0.00 61.2- 59.2---
2024-05-20 01:54 am S 2.9 2.9----29.94- 61.5- 59.4---
2024-05-20 01:48 am S 1.9 2.9----29.94- 61.5- 59.4---
2024-05-20 01:42 am S 1.9 2.9----29.94- 61.5- 59.4---
2024-05-20 01:36 am S 2.9 4.1----29.94- 61.5- 59.2---
2024-05-20 01:30 amSSE 2.9 4.1----29.94- 61.7- 59.4---
2024-05-20 01:24 amSSE 2.9 4.1----29.94- 61.7- 59.4---
2024-05-20 01:18 am-------29.94-------
2024-05-20 01:12 am-------29.94-------
2024-05-20 01:06 am-------29.94-------
2024-05-20 01:00 am S 1.0 1.9----29.94+0.01 61.7- 59.4---
2024-05-20 12:54 am S 1.9 2.9----29.94- 61.7- 59.4---
2024-05-20 12:48 amSSE 2.9 2.9----29.94- 61.5- 59.0---
2024-05-20 12:42 amSSE 1.9 2.9----29.94- 61.5- 59.0---
2024-05-20 12:36 amSSE 1.9 2.9----29.93- 61.5- 58.8---
2024-05-20 12:30 amSSE 1.9 1.9----29.93- 61.3- 58.8---
2024-05-20 12:24 am- 0.0 1.0----29.93- 61.2- 58.8---
2024-05-20 12:18 am- 0.0 1.9----29.93- 61.2- 58.8---
2024-05-20 12:12 amSSE 1.0 1.9----29.93- 61.5- 59.4---
2024-05-20 12:06 am SE 1.0 1.9----29.93- 61.3- 59.2---
2024-05-20 12:00 am- 0.0 1.9----29.94+0.02 61.3- 59.4---
2024-05-19 11:54 pm S 1.9 1.9----29.93- 61.5- 59.4---
2024-05-19 11:48 pmESE 1.0 1.9----29.93- 60.6- 58.8---
2024-05-19 11:42 pm E 1.9 1.9----29.93- 60.4- 58.6---
2024-05-19 11:36 pm E 1.9 1.9----29.93- 60.3- 58.5---
2024-05-19 11:30 pmESE 1.9 1.9----29.93- 60.3- 58.5---
2024-05-19 11:24 pm- 0.0 1.0----29.93- 59.7- 58.3---
2024-05-19 11:18 pm- 0.0 0.0----29.93-------
2024-05-19 11:12 pm- 0.0 1.0----29.93-------
2024-05-19 11:06 pm- 0.0 1.9----29.93-------
2024-05-19 11:00 pm W 1.9 2.9----29.94+0.01 59.4- 57.4---
2024-05-19 10:54 pmWNW 1.9 2.9----29.94- 59.5- 57.6---
2024-05-19 10:48 pmWNW 2.9 2.9----29.94- 59.7- 57.6---
2024-05-19 10:42 pmWNW 1.9 2.9----29.94- 59.7- 57.6---
2024-05-19 10:36 pmWNW 1.9 2.9----29.94- 60.3- 58.1---
2024-05-19 10:30 pmWNW 1.9 4.1----29.94- 60.6- 58.1---
2024-05-19 10:24 pm NW 2.9 4.1----29.94- 61.7- 58.8---
2024-05-19 10:18 pm S 1.9 2.9----29.94- 63.3- 60.1---
2024-05-19 10:12 pm S 2.9 4.1----29.93- 63.3- 60.1---
2024-05-19 10:06 pmSSE 1.0 1.9----29.93- 62.6- 59.5---
2024-05-19 10:00 pm E 1.9 2.9----29.93- 61.9- 59.0---
2024-05-19 09:54 pm E 1.9 2.9----29.93- 61.9- 59.0---
2024-05-19 09:48 pm E 1.9 2.9----29.93- 61.7- 59.0---
2024-05-19 09:42 pm- 0.0 0.0----29.93- 61.9- 59.5---
2024-05-19 09:36 pm- 0.0 1.0----29.93- 62.2- 59.9---
2024-05-19 09:30 pm- 0.0 1.9----29.93-------
2024-05-19 09:24 pm W 1.9 2.9----29.93-------
2024-05-19 09:18 pm W 1.9 2.9----29.93-------
2024-05-19 09:12 pm W 1.0 4.1----29.93-------
2024-05-19 09:06 pm W 4.1 4.1----29.92-------
2024-05-19 09:00 pm- 0.0 1.0----29.92+0.00------
2024-05-19 08:54 pm- 0.0 1.0----29.92-------
2024-05-19 08:48 pm- 0.0 1.0----29.92- 61.3- 59.5---
2024-05-19 08:42 pmWNW 1.0 1.0----29.92- 61.3- 59.5---
2024-05-19 08:36 pm W 1.0 2.9----29.92- 61.0- 59.4---
2024-05-19 08:30 pmWNW 1.9 2.9----29.93- 60.6- 58.8---
2024-05-19 08:24 pm W 1.0 5.1----29.93- 60.1- 58.3---
2024-05-19 08:00 pm W 7.0 8.9----29.93-0.01------
2024-05-19 07:54 pm W 6.0 6.0----29.92-------
2024-05-19 07:48 pm W 5.1 7.0------------
2024-05-19 07:42 pm W 5.1 6.0------------
2024-05-19 07:36 pm W 5.1 8.0------------
2024-05-19 07:30 pm W 7.0 8.9----29.93- 61.5- 57.7---
2024-05-19 07:24 pm W 7.0 8.0----29.93- 63.3- 59.0---
2024-05-19 07:18 pm W 6.0 8.0----29.92- 64.0- 59.4---
2024-05-19 07:12 pm W 6.0 7.0----29.92- 64.4- 59.2---
2024-05-19 07:06 pm W 5.1 6.0----29.92- 65.7- 59.9---
2024-05-19 07:00 pmWNW 4.1 5.1------------
2024-05-19 06:54 pm NW 4.1 5.1------------
2024-05-19 06:48 pm NW 4.1 5.1----29.91-------
2024-05-19 06:42 pm N 2.9 4.1----29.91-------
2024-05-19 06:36 pm N 2.9 2.9----29.91-------
2024-05-19 06:30 pm N 2.9 4.1----29.91-------
2024-05-19 06:24 pm N 2.9 4.1----29.91-------
2024-05-19 06:18 pm-------29.91- 67.3- 60.3---
2024-05-19 06:12 pm-------29.91- 66.6- 59.9---
2024-05-19 06:06 pm-------29.91- 65.7- 59.0---
2024-05-19 06:00 pm N 2.9 4.1----29.92-0.01 66.0- 59.0---
2024-05-19 05:54 pmNNE 1.9 1.9----29.92- 66.2- 58.8---
2024-05-19 05:48 pm- 0.0 2.9----29.93- 66.9- 59.4---
2024-05-19 05:42 pm- 0.0 1.9----29.93- 66.6- 59.4---
2024-05-19 05:36 pm W 1.0 1.9----29.93- 66.7- 59.7---
2024-05-19 05:30 pmWNW 1.0 4.1----29.93- 65.5- 59.4---
2024-05-19 05:24 pmWNW 2.9 5.1----29.94- 65.3- 59.0---
2024-05-19 05:18 pm W 5.1 5.1----29.94- 65.7- 59.4---
2024-05-19 05:12 pmWNW 4.1 5.1----29.93- 66.0- 59.5---
2024-05-19 05:06 pm W 4.1 5.1----29.93- 65.7- 59.5---
2024-05-19 05:00 pmWNW 5.1 7.0----29.94+0.00 65.3- 59.2---
2024-05-19 04:54 pm W 5.1 6.0----29.94- 65.8- 59.2---
2024-05-19 04:48 pm W 4.1 5.1----29.94- 66.9- 60.1---
2024-05-19 04:42 pmWNW 2.9 4.1----29.94- 66.2- 59.4---
2024-05-19 04:36 pmWNW 2.9 2.9----29.93- 66.6- 59.5---
2024-05-19 04:30 pmWNW 2.9 5.1----29.93- 66.7- 59.7---
2024-05-19 04:24 pmWNW 2.9 4.1----29.93- 66.7- 59.7---
2024-05-19 04:18 pmWNW 2.9 4.1----29.93- 66.9- 60.1---
2024-05-19 04:12 pm NW 2.9 5.1----29.93- 66.2- 59.4---
2024-05-19 04:06 pmWNW 4.1 5.1----29.93- 66.6- 59.5---
2024-05-19 04:00 pmWNW 4.1 5.1----29.93-0.02------
2024-05-19 03:54 pm NW 4.1 5.1----29.93-------
2024-05-19 03:48 pm NW 1.9 4.1----29.93-------
2024-05-19 03:42 pmWNW 2.9 5.1----29.92-------
2024-05-19 03:36 pmWNW 5.1 6.0----29.93-------
2024-05-19 03:30 pmWNW 5.1 5.1----29.93- 66.6- 59.4---
2024-05-19 03:24 pmWNW 4.1 5.1----29.93- 66.6- 59.5---
2024-05-19 03:18 pmWNW 2.9 4.1----29.93- 66.6- 59.5---
2024-05-19 03:12 pmWNW 4.1 5.1----29.93- 66.9- 59.9---
2024-05-19 03:06 pmWNW 2.9 4.1----29.93- 66.6- 59.7---
2024-05-19 03:00 pm NW 2.9 4.1----29.93-0.03------
2024-05-19 02:54 pm W 4.1 6.0----29.93-------
2024-05-19 02:48 pm W 5.1 6.0----29.93- 66.0- 59.5---
2024-05-19 02:42 pm NW 2.9 4.1----29.94- 65.7- 59.2---
2024-05-19 02:36 pmWNW 4.1 5.1----29.93- 66.0- 59.5---
2024-05-19 02:30 pmWNW 2.9 4.1----29.94- 66.7- 60.1---
2024-05-19 02:24 pmWNW 2.9 4.1----29.94- 66.2- 59.9---
2024-05-19 02:18 pm NW 2.9 6.0----29.94- 65.5- 59.7---
2024-05-19 02:12 pmWNW 6.0 8.0----29.94- 65.1- 59.2---
2024-05-19 02:06 pm W 7.0 8.0----29.94- 65.5- 59.4---
2024-05-19 02:00 pmWNW 5.1 6.0----29.94-0.02 65.3- 59.0---
2024-05-19 01:54 pmWNW 4.1 6.0----29.94- 66.4- 59.7---
2024-05-19 01:48 pm W 4.1 6.0----29.94- 66.4- 59.7---
2024-05-19 01:42 pmWNW 4.1 5.1----29.94- 66.0- 59.2---
2024-05-19 01:36 pmWNW 4.1 7.0----29.95- 66.9- 59.7---
2024-05-19 01:30 pmWNW 5.1 7.0----29.95- 67.3- 59.9---
2024-05-19 01:24 pmWNW 4.1 5.1----29.95- 67.8- 60.3---
2024-05-19 01:18 pm NW 4.1 6.0----29.95-------
2024-05-19 01:12 pmNNW 4.1 5.1----29.95-------
2024-05-19 01:06 pm NW 4.1 5.1----29.95-------
2024-05-19 01:00 pm NW 2.9 4.1----29.95-0.01------
2024-05-19 12:54 pm NW 4.1 6.0----29.95-------